Weather in Bolgury

Russia / Udmurt Republic     56°57′48″N   53°45′43″E
temp.,
°C
wind,
m/s
gust,
m/s
humid.,
%
clouds,
%
prec.,
mm/h
press.,
hPa
HPBL,
m
26 february, fri
fri2601:00−27se349829 0.0 102462
04:00−27se349722 0.0 102586
07:00−26se3599100 0.1 1024102
10:00−23se4697100 0.1 1023274
13:00−18se5792100 0.0 1022494
16:00−17sse5891100 0.1 1020545
19:00−21se41198100 0.0 1018280
22:00−20se5129699 0.0 1015387
27 february, sat
sat2701:00−18se61392100 0.0 1011489
04:00−17se71395100 0.3 1008591
07:00−16se71395100 1.2 1005678
10:00−14se61194100 2.4 1004660
13:00−12ese6991100 0.4 1003731
16:00−11e5992100 0.8 1004739
19:00−12ene5109498 0.3 1004373
22:00−14ene5109498 0.3 1005337
28 february, sun
sun2801:00−16ne51094100 0.1 1005355
04:00−18ne51094100 0.1 1006343
07:00−20ne61094100 0.0 1007317
10:00−19ne6109397 0.0 1008379
13:00−16nne699199 0.0 1009486
16:00−15nne61090100 0.0 1010545
19:00−17nne51194100 0.0 1012297
22:00−18nne499696 0.0 1015169
1 march, mon
mon101:00−21nne489527 0.0 1016141
04:00−23nne479414 0.0 1019114
07:00−24nne34930 0.0 102076
10:00−20nne35900 0.0 1022229
13:00−14n238425 0.0 1023403
16:00−11nw138363 0.0 1022452
19:00−16w239472 0.0 102321
22:00−17wsw349641 0.0 102233
2 march, tue
tue201:00−18sw489640 0.0 1020156
04:00−18sw5109568 0.0 1017263
07:00−16ssw71292100 0.0 1014355
10:00−14sw71295100 0.7 1011450
13:00−11sw61093100 0.9 1009559
16:00−10ssw6994100 1.8 1007533
19:00−10ssw4995100 0.6 1006350
22:00−10ssw4895100 0.8 1005240